DL5ARK Weather Reports


Display with metric or nautical units.
time (UTC)temp
F
wind
direction
speed
MPH
gust
MPH
rain 1hr
in
rain 24hr
in
rain mn
in
humidity
%
barometer
mb
20260831042106 57 112 0.0 0.0 0.00 0.00 0.04 88 1000.3
20260831041806 57 90 1.0 1.0 0.00 0.00 0.04 88 1000.3
20260831041506 57 90 0.0 0.0 0.00 0.00 0.04 87 1000.3
20260831041205 57 90 1.0 1.0 0.00 0.00 0.04 87 1000.3
20260831040905 57 337 2.0 2.0 0.00 0.00 0.04 86 1000.3
20260831040305 56 90 1.0 1.0 0.00 0.00 0.04 86 1000.3
20260831040006 57 90 2.0 2.0 0.00 0.00 0.04 86 1000.3
20260831035706 57 90 2.0 2.0 0.00 0.00 0.04 86 1000.3
20260831035405 57 90 1.0 1.0 0.00 0.00 0.04 86 1000.3
20260831034806 57 337 1.0 1.0 0.00 0.00 0.04 86 1000.3
20260831034506 57 112 1.0 1.0 0.00 0.00 0.04 86 1000.3
20260831034206 57 135 1.0 1.0 0.00 0.00 0.04 86 1000.5
20260831033906 57 90 0.0 0.0 0.00 0.00 0.04 86 1000.5
20260831033306 57 135 0.0 0.0 0.00 0.00 0.04 86 1000.5
20260831033006 57 135 0.0 0.0 0.00 0.00 0.02 86 1000.5
20260831032705 58 180 1.0 1.0 0.00 0.00 0.02 86 1000.8
20260831032405 58 270 1.0 1.0 0.00 0.00 0.02 85 1000.8
20260831032106 57 337 0.0 0.0 0.00 0.00 0.02 85 1000.8
20260831031506 58 337 0.0 0.0 0.00 0.00 0.00 85 1000.5
20260831031206 58 315 1.0 1.0 0.00 0.00 0.00 85 1000.5
20260831030906 58 0 2.0 2.0 0.00 0.00 0.00 86 1000.8
20260831030605 57 337 3.0 3.0 0.00 0.00 0.00 84 1000.8
20260831030306 57 315 3.0 3.0 0.00 0.00 0.00 84 1000.8
20260831030006 57 315 2.0 2.0 0.00 0.00 0.00 84 1000.8
20260831025706 57 315 5.0 5.0 0.00 0.00 0.00 85 1000.8
20260831025405 57 315 4.0 4.0 0.00 0.00 0.00 84 1000.5
20260831025105 57 0 3.0 3.0 0.00 0.00 0.00 83 1000.5
20260831024806 56 270 0.0 0.0 0.00 0.00 0.00 83 1000.5
20260831024205 55 270 1.0 1.0 0.00 0.00 0.00 82 1000.3
20260831023905 55 0 0.0 0.0 0.00 0.00 0.00 81 1000.3
20260831023606 55 0 0.0 0.0 0.00 0.00 0.00 82 1000.0
20260831023306 55 0 0.0 0.0 0.00 0.00 0.00 82 1000.3
20260831023005 55 0 0.0 0.0 0.00 0.00 0.00 82 1000.3
20260831022405 55 0 0.0 0.0 0.00 0.00 0.00 82 1000.0
20260831022106 55 0 2.0 2.0 0.00 0.00 0.00 82 1000.0
20260831021805 55 0 1.0 1.0 0.00 0.00 0.00 82 1000.0
20260831021507 55 180 0.0 0.0 0.00 0.00 0.00 82 1000.0
20260831020906 55 180 1.0 1.0 0.00 0.00 0.00 81 1000.0
20260831020605 54 337 0.0 0.0 0.00 0.00 0.00 81 1000.0
20260831020306 54 0 0.0 0.0 0.00 0.00 0.00 81 999.8
20260831020005 54 0 0.0 0.0 0.00 0.00 0.00 81 999.8
20260831015709 54 0 0.0 0.0 0.00 0.00 0.00 81 999.8
20260831015405 54 337 0.0 0.0 0.00 0.00 0.00 81 1000.0
20260831015105 54 0 0.0 0.0 0.00 0.00 0.00 81 1000.0
20260831014806 54 0 0.0 0.0 0.00 0.00 0.00 81 1000.0
20260831014506 54 0 0.0 0.0 0.00 0.00 0.00 81 1000.3
20260831014205 54 0 0.0 0.0 0.00 0.00 0.00 80 1000.3
20260831013606 53 337 0.0 0.0 0.00 0.00 0.00 80 1000.3
20260831013305 53 337 0.0 0.0 0.00 0.00 0.00 80 1000.3
20260831013005 53 337 0.0 0.0 0.00 0.00 0.00 80 1000.3
20260831012706 53 337 0.0 0.0 0.00 0.00 0.00 81 1000.3
20260831012405 53 337 0.0 0.0 0.00 0.00 0.00 80 1000.5
20260831011805 53 315 0.0 0.0 0.00 0.00 0.00 79 1000.5
20260831011505 53 337 0.0 0.0 0.00 0.00 0.00 79 1000.8
20260831011206 53 337 0.0 0.0 0.00 0.00 0.00 80 1000.5
20260831010906 53 90 0.0 0.0 0.00 0.00 0.00 80 1000.5
20260831010306 53 90 0.0 0.0 0.00 0.00 0.00 79 1000.5
20260831010005 53 90 0.0 0.0 0.00 0.00 0.00 79 1000.5
20260831005706 53 90 0.0 0.0 0.00 0.00 0.00 79 1000.8
20260831005106 52 90 0.0 0.0 0.00 0.00 0.00 78 1000.8
20260831004807 52 337 0.0 0.0 0.00 0.00 0.00 78 1000.8
20260831004506 52 90 0.0 0.0 0.00 0.00 0.00 78 1000.8
20260831004206 52 90 0.0 0.0 0.00 0.00 0.00 78 1000.8
20260831003905 52 90 0.0 0.0 0.00 0.00 0.00 78 1001.0
20260831003606 52 90 0.0 0.0 0.00 0.00 0.00 78 1000.8
20260831003308 52 90 0.0 0.0 0.00 0.00 0.00 78 1001.0
20260831003006 52 90 0.0 0.0 0.00 0.00 0.00 77 1001.3
20260831002705 52 337 0.0 0.0 0.00 0.00 0.00 78 1001.3
20260831002406 52 337 0.0 0.0 0.00 0.00 0.00 77 1001.3
20260831002108 52 202 0.0 0.0 0.00 0.00 0.00 77 1001.3
20260831001805 52 202 0.0 0.0 0.00 0.00 0.00 77 1001.3
20260831001506 52 337 0.0 0.0 0.00 0.00 0.00 78 1001.3
20260831001206 53 202 0.0 0.0 0.00 0.00 0.00 78 1001.3
20260831000606 52 202 0.0 0.0 0.00 0.00 0.00 77 1001.3
20260831000306 52 225 0.0 0.0 0.00 0.00 0.00 77 1001.3
20260831000006 52 225 0.0 0.0 0.00 0.00 0.00 76 1001.3
20260830235706 52 225 0.0 0.0 0.00 0.00 0.00 76 1001.3
20260830235106 52 202 0.0 0.0 0.00 0.00 0.00 77 1001.3
20260830234806 52 202 0.0 0.0 0.00 0.00 0.00 77 1001.3
20260830234505 52 202 0.0 0.0 0.00 0.00 0.00 76 1001.5
20260830234205 53 337 0.0 0.0 0.00 0.00 0.00 77 1001.5
20260830233606 53 225 0.0 0.0 0.00 0.00 0.00 76 1001.3
20260830233306 53 225 0.0 0.0 0.00 0.00 0.00 76 1001.5
20260830233006 53 202 0.0 0.0 0.00 0.00 0.00 76 1001.5
20260830232706 53 202 0.0 0.0 0.00 0.00 0.00 76 1001.5
20260830232105 53 225 0.0 0.0 0.00 0.00 0.00 76 1001.8
20260830231806 53 337 0.0 0.0 0.00 0.00 0.00 76 1001.8
20260830231506 53 180 0.0 0.0 0.00 0.00 0.00 76 1001.8
20260830231206 53 180 0.0 0.0 0.00 0.00 0.00 76 1001.8
20260830230905 53 337 0.0 0.0 0.00 0.00 0.00 76 1001.8
20260830230606 53 180 0.0 0.0 0.00 0.00 0.00 76 1001.8
20260830230306 53 180 0.0 0.0 0.00 0.00 0.00 76 1001.8
20260830230006 53 180 0.0 0.0 0.00 0.00 0.00 76 1001.8
20260830225708 53 337 0.0 0.0 0.00 0.00 0.00 76 1001.8
20260830225406 54 180 0.0 0.0 0.00 0.00 0.00 75 1002.0
20260830225105 54 180 0.0 0.0 0.00 0.00 0.00 76 1001.8
20260830224805 54 180 0.0 0.0 0.00 0.00 0.00 76 1002.0
20260830224506 54 180 0.0 0.0 0.00 0.00 0.00 76 1002.0
20260830224206 54 180 2.0 2.0 0.00 0.00 0.00 76 1002.0
20260830223605 54 337 0.0 0.0 0.00 0.00 0.00 75 1001.8
20260830223306 54 337 0.0 0.0 0.00 0.00 0.00 75 1001.8
20260830223006 54 337 0.0 0.0 0.00 0.00 0.00 75 1001.8
20260830222705 54 337 0.0 0.0 0.00 0.00 0.00 75 1002.0
20260830222405 54 337 0.0 0.0 0.00 0.00 0.00 75 1002.0
20260830222108 54 337 0.0 0.0 0.00 0.00 0.00 74 1002.0
20260830221806 54 337 0.0 0.0 0.00 0.00 0.00 74 1002.0
20260830221505 54 337 0.0 0.0 0.00 0.00 0.00 74 1002.0
20260830221205 54 337 0.0 0.0 0.00 0.00 0.00 74 1002.0
20260830220905 55 337 0.0 0.0 0.00 0.00 0.00 74 1002.3
20260830220306 55 337 0.0 0.0 0.00 0.00 0.00 74 1002.3
20260830220006 55 337 0.0 0.0 0.00 0.00 0.00 74 1002.3
20260830215706 55 337 0.0 0.0 0.00 0.00 0.00 74 1002.3
20260830215406 55 337 0.0 0.0 0.00 0.00 0.00 74 1002.0
20260830215105 54 337 0.0 0.0 0.00 0.00 0.00 74 1002.3
20260830214809 55 225 0.0 0.0 0.00 0.00 0.00 74 1002.3
20260830214507 55 225 0.0 0.0 0.00 0.00 0.00 74 1002.0
20260830214206 55 225 0.0 0.0 0.00 0.00 0.00 74 1002.0
20260830213905 55 0 0.0 0.0 0.00 0.00 0.00 73 1002.0
20260830213605 55 0 0.0 0.0 0.00 0.00 0.00 73 1002.0
20260830213305 55 0 0.0 0.0 0.00 0.00 0.00 73 1002.0
20260830213006 55 0 0.0 0.0 0.00 0.00 0.00 73 1002.0
20260830212706 55 0 0.0 0.0 0.00 0.00 0.00 73 1001.8
20260830212406 55 0 0.0 0.0 0.00 0.00 0.00 73 1002.0
20260830212106 56 0 0.0 0.0 0.00 0.00 0.00 73 1002.0
20260830211805 56 337 0.0 0.0 0.00 0.00 0.00 73 1002.0
20260830211205 56 0 0.0 0.0 0.00 0.00 0.00 72 1002.0
20260830210906 55 337 0.0 0.0 0.00 0.00 0.00 72 1002.0
20260830210605 56 67 0.0 0.0 0.00 0.00 0.00 72 1002.0
20260830210306 56 112 0.0 0.0 0.00 0.00 0.00 72 1002.0
20260830210006 56 112 0.0 0.0 0.00 0.00 0.00 71 1002.0
20260830205708 56 45 0.0 0.0 0.00 0.00 0.00 71 1002.0
20260830205406 56 45 0.0 0.0 0.00 0.00 0.00 71 1002.0
20260830205106 56 45 0.0 0.0 0.00 0.00 0.00 71 1001.8
20260830204805 56 45 0.0 0.0 0.00 0.00 0.00 71 1002.0
20260830204506 56 45 0.0 0.0 0.00 0.00 0.00 71 1002.0
20260830204208 56 45 0.0 0.0 0.00 0.00 0.00 70 1002.0
20260830203905 56 45 0.0 0.0 0.00 0.00 0.00 70 1002.0
20260830203606 57 45 0.0 0.0 0.00 0.00 0.00 71 1002.0
20260830203305 57 45 0.0 0.0 0.00 0.00 0.00 71 1001.8
20260830203006 57 45 0.0 0.0 0.00 0.00 0.00 70 1002.0
20260830202405 57 337 0.0 0.0 0.00 0.00 0.00 69 1002.0
20260830202106 57 45 0.0 0.0 0.00 0.00 0.00 70 1002.0
20260830201806 57 337 0.0 0.0 0.00 0.00 0.00 69 1002.0
20260830201508 57 45 0.0 0.0 0.00 0.00 0.00 69 1002.0
20260830201205 57 45 0.0 0.0 0.00 0.00 0.00 69 1002.0
20260830200906 57 67 0.0 0.0 0.00 0.00 0.00 69 1002.0
20260830200606 57 67 0.0 0.0 0.00 0.00 0.00 69 1002.3
20260830200307 57 67 0.0 0.0 0.00 0.00 0.00 69 1002.3
20260830200007 58 67 0.0 0.0 0.00 0.00 0.00 69 1002.0
20260830195406 58 67 0.0 0.0 0.00 0.00 0.00 69 1002.0
20260830195105 58 67 0.0 0.0 0.00 0.00 0.00 68 1002.3
20260830194805 59 67 0.0 0.0 0.00 0.00 0.00 68 1002.3
20260830194506 59 67 0.0 0.0 0.00 0.00 0.00 68 1002.3
20260830194205 59 67 0.0 0.0 0.00 0.00 0.00 68 1002.0
20260830193607 59 67 0.0 0.0 0.00 0.00 0.00 67 1002.3
20260830193306 59 67 0.0 0.0 0.00 0.00 0.00 67 1002.3
20260830193005 60 67 0.0 0.0 0.00 0.00 0.00 67 1002.3
20260830192706 60 67 0.0 0.0 0.00 0.00 0.00 67 1002.3
20260830192405 60 337 0.0 0.0 0.00 0.00 0.00 67 1002.3
20260830191806 61 337 0.0 0.0 0.00 0.00 0.00 67 1002.3
20260830191505 61 337 0.0 0.0 0.00 0.00 0.00 66 1002.0
20260830191206 61 67 0.0 0.0 0.00 0.00 0.00 66 1002.0
20260830190906 61 67 0.0 0.0 0.00 0.00 0.00 66 1002.0
20260830190305 61 67 0.0 0.0 0.00 0.00 0.00 66 1002.3
20260830190006 62 67 0.0 0.0 0.00 0.00 0.00 66 1002.3
20260830185706 61 337 0.0 0.0 0.00 0.00 0.00 65 1002.0
20260830185105 62 0 0.0 0.0 0.00 0.00 0.00 65 1002.0
20260830184806 63 0 0.0 0.0 0.00 0.00 0.00 65 1002.0
20260830184505 62 0 0.0 0.0 0.00 0.00 0.00 64 1002.0
20260830184207 63 0 0.0 0.0 0.00 0.00 0.00 64 1002.0
20260830183906 63 0 0.0 0.0 0.00 0.00 0.00 63 1002.0
20260830183606 63 0 0.0 0.0 0.00 0.00 0.00 63 1001.8
20260830183305 64 0 0.0 0.0 0.00 0.00 0.00 63 1001.8
20260830183005 64 0 0.0 0.0 0.00 0.00 0.00 63 1001.8
20260830182706 64 0 0.0 0.0 0.00 0.00 0.00 63 1001.8
20260830182409 64 0 0.0 0.0 0.00 0.00 0.00 63 1001.8
20260830182105 65 0 0.0 0.0 0.00 0.00 0.00 63 1001.8
20260830181805 65 0 0.0 0.0 0.00 0.00 0.00 63 1001.8
20260830181506 65 0 0.0 0.0 0.00 0.00 0.00 62 1001.8
20260830181205 65 0 0.0 0.0 0.00 0.00 0.00 61 1001.8
20260830180908 66 0 0.0 0.0 0.00 0.00 0.00 60 1001.5
20260830180605 66 0 0.0 0.0 0.00 0.00 0.00 59 1001.5
20260830180305 67 337 0.0 0.0 0.00 0.00 0.00 59 1001.5
20260830180005 67 0 0.0 0.0 0.00 0.00 0.00 58 1001.5
20260830175705 67 0 0.0 0.0 0.00 0.00 0.00 58 1001.5
20260830175405 68 0 0.0 0.0 0.00 0.00 0.00 58 1001.5
20260830175109 68 0 0.0 0.0 0.00 0.00 0.00 57 1001.5
20260830174806 69 292 0.0 0.0 0.00 0.00 0.00 57 1001.5
20260830174507 69 270 0.0 0.0 0.00 0.00 0.00 56 1001.5
20260830174205 70 270 0.0 0.0 0.00 0.00 0.00 55 1001.3
20260830173606 71 315 0.0 0.0 0.00 0.00 0.00 53 1001.3
20260830173305 71 315 1.0 1.0 0.00 0.00 0.00 53 1001.3
20260830173006 72 315 0.0 0.0 0.00 0.00 0.00 52 1001.3
20260830172707 72 292 1.0 1.0 0.00 0.00 0.00 53 1001.3
20260830172105 72 337 0.0 0.0 0.00 0.00 0.00 52 1001.3
20260830171806 73 225 0.0 0.0 0.00 0.00 0.00 51 1001.3
20260830171505 73 225 0.0 0.0 0.00 0.00 0.00 51 1001.3
20260830171206 73 225 2.0 2.0 0.00 0.00 0.00 51 1001.3
20260830170906 73 247 2.0 2.0 0.00 0.00 0.00 51 1001.3
20260830170606 74 202 0.0 0.0 0.00 0.00 0.00 50 1001.3
20260830170306 74 270 2.0 2.0 0.00 0.00 0.00 49 1001.3
20260830170006 74 337 2.0 2.0 0.00 0.00 0.00 50 1001.3
20260830165406 74 337 1.0 1.0 0.00 0.00 0.00 49 1001.3
20260830165105 74 225 3.0 3.0 0.00 0.00 0.00 49 1001.3
20260830164806 74 225 4.0 4.0 0.00 0.00 0.00 49 1001.3
20260830164205 74 202 3.0 4.0 0.00 0.00 0.00 49 1001.3
20260830163906 74 337 0.0 0.0 0.00 0.00 0.00 49 1001.3
20260830163606 74 225 1.0 1.0 0.00 0.00 0.00 48 1001.3
20260830163308 74 270 2.0 2.0 0.00 0.00 0.00 48 1001.3
20260830163006 74 337 6.0 6.0 0.00 0.00 0.00 48 1001.3
20260830162705 75 292 4.0 4.0 0.00 0.00 0.00 49 1001.3
20260830162406 75 270 3.0 3.0 0.00 0.00 0.00 48 1001.3
20260830162106 75 225 2.0 2.0 0.00 0.00 0.00 48 1001.3
20260830161808 75 225 4.0 4.0 0.00 0.00 0.00 48 1001.3
20260830161506 76 225 2.0 2.0 0.00 0.00 0.00 47 1001.3
20260830161206 76 247 2.0 2.0 0.00 0.00 0.00 49 1001.3
20260830160906 76 292 6.0 6.0 0.00 0.00 0.00 48 1001.3
20260830160605 76 180 4.0 4.0 0.00 0.00 0.00 49 1001.3
20260830160305 76 315 2.0 2.0 0.00 0.00 0.00 48 1001.3
20260830155706 76 270 6.0 6.0 0.00 0.00 0.00 47 1001.3
20260830155405 76 225 5.0 5.0 0.00 0.00 0.00 48 1001.3
20260830155105 76 225 2.0 2.0 0.00 0.00 0.00 47 1001.3
20260830154805 76 337 2.0 2.0 0.00 0.00 0.00 47 1001.3
20260830154205 76 225 6.0 6.0 0.00 0.00 0.00 47 1001.3
20260830153906 75 292 3.0 3.0 0.00 0.00 0.00 47 1001.3
20260830153606 75 247 5.0 5.0 0.00 0.00 0.00 47 1001.3
20260830153306 75 270 6.0 6.0 0.00 0.00 0.00 46 1001.5
20260830153006 76 292 8.0 8.0 0.00 0.00 0.00 47 1001.5
20260830152709 76 225 4.0 4.0 0.00 0.00 0.00 46 1001.3
20260830152405 76 270 8.0 8.0 0.00 0.00 0.00 46 1001.5
20260830152106 77 202 3.0 3.0 0.00 0.00 0.00 46 1001.3
20260830151805 76 202 3.0 3.0 0.00 0.00 0.00 47 1001.5
20260830151506 76 225 12.0 12.0 0.00 0.00 0.00 46 1001.5
20260830151205 76 337 7.0 7.0 0.00 0.00 0.00 46 1001.5
20260830150908 77 270 4.0 4.0 0.00 0.00 0.00 46 1001.5
20260830150605 76 225 5.0 5.0 0.00 0.00 0.00 46 1001.5
20260830150306 76 225 9.0 9.0 0.00 0.00 0.00 46 1001.5
20260830150005 77 225 6.0 6.0 0.00 0.00 0.00 46 1001.5
20260830145706 77 247 5.0 5.0 0.00 0.00 0.00 47 1001.5
20260830145408 77 270 2.0 2.0 0.00 0.00 0.00 47 1001.3
20260830145105 76 225 8.0 8.0 0.00 0.00 0.00 47 1001.3
20260830144806 76 225 9.0 9.0 0.00 0.00 0.00 46 1001.3
20260830144505 76 270 7.0 7.0 0.00 0.00 0.00 45 1001.3
20260830144205 77 315 4.0 4.0 0.00 0.00 0.00 45 1001.3
20260830143606 77 225 8.0 8.0 0.00 0.00 0.00 45 1001.3
20260830143306 77 202 11.0 11.0 0.00 0.00 0.00 45 1001.3
20260830143007 77 270 14.0 14.0 0.00 0.00 0.00 45 1001.3
20260830142706 77 292 12.0 12.0 0.00 0.00 0.00 44 1001.8
20260830142105 79 225 4.0 4.0 0.00 0.00 0.00 46 1001.3
20260830141806 77 225 6.0 6.0 0.00 0.00 0.00 45 1001.3
20260830141509 78 202 3.0 3.0 0.00 0.00 0.00 46 1001.3
20260830141206 77 292 7.0 7.0 0.00 0.00 0.00 45 1001.5
20260830140905 78 270 3.0 3.0 0.00 0.00 0.00 45 1001.5
20260830140606 78 202 5.0 5.0 0.00 0.00 0.00 46 1001.5
20260830140306 76 337 9.0 9.0 0.00 0.00 0.00 45 1001.5
20260830140005 78 225 8.0 8.0 0.00 0.00 0.00 45 1001.5
20260830135706 79 270 10.0 10.0 0.00 0.00 0.00 46 1001.5
20260830135405 78 315 4.0 4.0 0.00 0.00 0.00 46 1001.3
20260830135106 78 270 2.0 2.0 0.00 0.00 0.00 46 1001.3
20260830134806 77 270 7.0 7.0 0.00 0.00 0.00 45 1001.3
20260830134508 78 337 4.0 4.0 0.00 0.00 0.00 44 1001.5
20260830134205 78 225 5.0 5.0 0.00 0.00 0.00 45 1001.5
20260830133907 78 337 3.0 3.0 0.00 0.00 0.00 45 1001.3
20260830133606 77 270 6.0 6.0 0.00 0.00 0.00 44 1001.5
20260830133306 77 337 7.0 7.0 0.00 0.00 0.00 44 1001.5
20260830133006 78 247 5.0 5.0 0.00 0.00 0.00 45 1001.5
20260830132706 78 225 8.0 8.0 0.00 0.00 0.00 46 1001.5
20260830132406 78 270 6.0 6.0 0.00 0.00 0.00 46 1001.5
20260830132105 78 202 4.0 4.0 0.00 0.00 0.00 46 1001.5
20260830131806 78 247 8.0 8.0 0.00 0.00 0.00 45 1001.5
20260830131509 78 202 7.0 7.0 0.00 0.00 0.00 47 1001.5
20260830130906 78 202 4.0 4.0 0.00 0.00 0.00 47 1001.5
20260830130606 77 225 5.0 5.0 0.00 0.00 0.00 45 1001.5
20260830130306 77 202 8.0 8.0 0.00 0.00 0.00 45 1001.5
20260830130005 78 202 8.0 8.0 0.00 0.00 0.00 47 1001.5
20260830125406 78 225 5.0 5.0 0.00 0.00 0.00 45 1001.5
20260830125106 78 202 8.0 8.0 0.00 0.00 0.00 45 1001.5
20260830124806 79 225 12.0 12.0 0.00 0.00 0.00 46 1001.5
20260830124506 79 180 10.0 10.0 0.00 0.00 0.00 45 1001.5
20260830123906 78 270 6.0 6.0 0.00 0.00 0.00 44 1001.5
20260830123605 78 180 15.0 15.0 0.00 0.00 0.00 44 1001.8
20260830123305 79 337 6.0 6.0 0.00 0.00 0.00 45 1001.5
20260830123007 79 337 8.0 8.0 0.00 0.00 0.00 45 1001.5
20260830122708 79 225 7.0 7.0 0.00 0.00 0.00 47 1001.8
20260830122406 79 315 4.0 4.0 0.00 0.00 0.00 47 1001.5
20260830122105 78 202 8.0 8.0 0.00 0.00 0.00 47 1001.8
20260830121806 77 337 5.0 5.0 0.00 0.00 0.00 46 1001.5
20260830121509 79 202 7.0 7.0 0.00 0.00 0.00 47 1001.5
20260830120905 79 270 3.0 3.0 0.00 0.00 0.00 47 1001.8
20260830120606 77 270 10.0 10.0 0.00 0.00 0.00 45 1001.8
20260830120305 79 202 10.0 10.0 0.00 0.00 0.00 49 1001.5
20260830115705 78 225 10.0 10.0 0.00 0.00 0.00 48 1001.8
20260830115406 78 270 5.0 5.0 0.00 0.00 0.00 48 1001.8
20260830115105 78 247 8.0 8.0 0.00 0.00 0.00 48 1001.8
20260830114808 78 337 7.0 7.0 0.00 0.00 0.00 50 1001.5
20260830114506 78 337 10.0 10.0 0.00 0.00 0.00 51 1001.8
20260830114205 77 225 4.0 4.0 0.00 0.00 0.00 51 1001.5
20260830113906 76 202 7.0 8.0 0.00 0.00 0.00 53 1001.8
20260830113305 73 225 5.0 5.0 0.00 0.00 0.00 52 1001.8
20260830113006 73 247 2.0 2.0 0.00 0.00 0.00 51 1001.8
20260830112706 73 225 6.0 6.0 0.00 0.00 0.00 51 1001.8
20260830112106 73 225 10.0 10.0 0.00 0.00 0.00 52 1001.5
20260830111806 73 225 7.0 7.0 0.00 0.00 0.00 51 1001.5
20260830111506 75 225 8.0 8.0 0.00 0.00 0.00 53 1001.8
20260830111206 74 225 16.0 16.0 0.00 0.00 0.00 53 1001.8
20260830110906 73 225 8.0 8.0 0.00 0.00 0.00 53 1001.8
20260830110605 74 337 7.0 7.0 0.00 0.00 0.00 55 1001.8
20260830110306 75 270 5.0 5.0 0.00 0.00 0.00 56 1001.8
20260830110005 74 247 3.0 3.0 0.00 0.00 0.00 56 1001.8
20260830105406 73 225 9.0 9.0 0.00 0.00 0.00 56 1001.8
20260830105105 72 270 7.0 7.0 0.00 0.00 0.00 55 1001.8
20260830104806 72 225 7.0 7.0 0.00 0.00 0.00 54 1001.8
20260830104506 72 225 10.0 10.0 0.00 0.00 0.00 54 1002.0
20260830103906 72 202 7.0 7.0 0.00 0.00 0.00 53 1001.8
20260830103606 73 337 10.0 10.0 0.00 0.00 0.00 53 1001.8
20260830103306 73 202 6.0 6.0 0.00 0.00 0.00 52 1001.8
20260830103006 75 225 7.0 8.0 0.00 0.00 0.00 52 1001.8
20260830102706 75 247 5.0 5.0 0.00 0.00 0.00 52 1001.8
20260830102406 76 202 16.0 16.0 0.00 0.00 0.00 54 1001.8
20260830101806 76 225 9.0 9.0 0.00 0.00 0.00 52 1001.8
20260830101506 75 337 7.0 7.0 0.00 0.00 0.00 54 1001.8
20260830101206 75 225 15.0 15.0 0.00 0.00 0.00 55 1001.8
20260830100906 76 292 6.0 6.0 0.00 0.00 0.00 57 1001.8
20260830100606 75 270 9.0 9.0 0.00 0.00 0.00 56 1001.8
20260830100306 75 225 8.0 8.0 0.00 0.00 0.00 56 1001.8
20260830095706 75 180 11.0 11.0 0.00 0.00 0.00 58 1001.8
20260830095406 74 270 7.0 7.0 0.00 0.00 0.00 58 1001.8
20260830095106 74 337 5.0 5.0 0.00 0.00 0.00 58 1001.8
20260830094806 74 225 6.0 6.0 0.00 0.00 0.00 59 1001.8
20260830094206 73 202 16.0 16.0 0.00 0.00 0.00 59 1001.8
20260830093906 73 337 10.0 10.0 0.00 0.00 0.00 59 1001.8
20260830093606 73 225 10.0 10.0 0.00 0.00 0.00 59 1002.0
20260830093306 73 202 11.0 11.0 0.00 0.00 0.00 61 1021.1
20260830092706 74 270 4.0 4.0 0.00 0.00 0.00 61 1001.8
20260830092406 73 247 10.0 11.0 0.00 0.00 0.00 62 1002.0
20260830092106 73 337 8.0 8.0 0.00 0.00 0.00 63 1002.0
20260830091806 73 225 11.0 11.0 0.00 0.00 0.00 63 1001.8
20260830091506 73 270 6.0 6.0 0.00 0.00 0.00 63 1001.8
20260830091206 72 337 8.0 8.0 0.00 0.00 0.00 63 1001.8
20260830090906 73 202 5.0 5.0 0.00 0.00 0.00 65 1001.8
20260830090605 73 337 9.0 9.0 0.00 0.00 0.00 64 1001.8
20260830090306 72 225 14.0 14.0 0.00 0.00 0.00 65 1001.8
20260830090006 72 225 13.0 13.0 0.00 0.00 0.00 65 1001.8
20260830085706 71 225 13.0 13.0 0.00 0.00 0.00 65 1001.8
20260830085106 71 202 6.0 6.0 0.00 0.00 0.00 65 1001.8
20260830084805 71 225 12.0 12.0 0.00 0.00 0.00 66 1001.8
20260830084505 72 225 12.0 12.0 0.00 0.00 0.00 67 1001.8
20260830084205 72 225 6.0 6.0 0.00 0.00 0.00 68 1001.8
20260830083906 71 337 5.0 5.0 0.00 0.00 0.00 67 1001.8
20260830083606 71 270 14.0 14.0 0.00 0.00 0.00 67 1001.8
20260830083305 70 225 12.0 12.0 0.00 0.00 0.00 67 1001.8
20260830083006 70 202 14.0 14.0 0.00 0.00 0.00 67 1001.8
20260830082705 70 225 10.0 10.0 0.00 0.00 0.00 69 1001.8
20260830082408 69 225 7.0 7.0 0.00 0.00 0.00 69 1001.8
20260830082105 69 225 5.0 5.0 0.00 0.00 0.00 69 1001.8
20260830081806 69 337 6.0 6.0 0.00 0.00 0.00 69 1001.8
20260830081505 68 337 6.0 6.0 0.00 0.00 0.00 70 1001.8
20260830081206 69 270 5.0 5.0 0.00 0.00 0.00 70 1001.8
20260830080908 68 225 8.0 8.0 0.00 0.00 0.00 70 1001.8
20260830080605 68 202 11.0 11.0 0.00 0.00 0.00 70 1001.8
20260830080306 68 247 6.0 6.0 0.00 0.00 0.00 70 1001.8
20260830080006 68 270 4.0 4.0 0.00 0.00 0.00 71 1001.8
20260830075706 68 202 10.0 10.0 0.00 0.00 0.00 71 1001.5
20260830075406 68 225 10.0 10.0 0.00 0.00 0.00 71 1001.8
20260830075105 68 225 7.0 7.0 0.00 0.00 0.00 72 1001.8
20260830074806 68 225 5.0 5.0 0.00 0.00 0.00 71 1001.8
20260830074506 69 225 12.0 12.0 0.00 0.00 0.00 72 1001.5
20260830074206 68 225 4.0 4.0 0.00 0.00 0.00 72 1001.8
20260830073906 68 225 8.0 8.0 0.00 0.00 0.00 73 1001.8
20260830073608 68 270 10.0 10.0 0.00 0.00 0.00 72 1001.8
20260830073306 68 157 6.0 6.0 0.00 0.00 0.00 73 1001.8
20260830073006 68 337 8.0 8.0 0.00 0.00 0.00 74 1001.8
20260830072706 68 180 5.0 5.0 0.00 0.00 0.00 74 1001.8
20260830072406 68 225 8.0 8.0 0.00 0.00 0.00 74 1001.8
20260830071806 67 180 12.0 12.0 0.00 0.00 0.00 75 1001.5
20260830071506 67 337 4.0 4.0 0.00 0.00 0.00 74 1001.8
20260830071206 66 337 8.0 8.0 0.00 0.00 0.00 74 1001.8
20260830070906 66 225 10.0 10.0 0.00 0.00 0.00 74 1001.5
20260830070608 66 225 10.0 10.0 0.00 0.00 0.00 74 1001.5
20260830070306 66 270 5.0 5.0 0.00 0.00 0.00 74 1001.5
20260830070006 66 225 4.0 4.0 0.00 0.00 0.00 74 1001.5
20260830065706 66 225 10.0 10.0 0.00 0.00 0.00 74 1001.3
20260830065405 65 180 8.0 8.0 0.00 0.00 0.00 74 1001.5
20260830065106 66 180 5.0 5.0 0.00 0.00 0.00 74 1001.5
20260830064806 66 247 6.0 6.0 0.00 0.00 0.00 74 1001.5
20260830064507 66 225 6.0 6.0 0.00 0.00 0.00 74 1001.8
20260830064206 66 225 9.0 9.0 0.00 0.00 0.00 74 1001.5
20260830063906 66 225 7.0 7.0 0.00 0.00 0.00 74 1001.5
20260830063606 66 225 7.0 7.0 0.00 0.00 0.00 75 1001.5
20260830063006 66 225 4.0 4.0 0.00 0.00 0.00 75 1001.5
20260830062706 65 225 8.0 8.0 0.00 0.00 0.00 75 1001.5
20260830062406 65 225 4.0 4.0 0.00 0.00 0.00 75 1001.5
20260830062105 65 225 5.0 5.0 0.00 0.00 0.00 75 1001.5
20260830061809 65 225 3.0 3.0 0.00 0.00 0.00 75 1001.5
20260830061506 65 225 6.0 6.0 0.00 0.00 0.00 74 1001.3
20260830061205 64 225 5.0 5.0 0.00 0.00 0.00 75 1001.3
20260830060905 64 337 6.0 6.0 0.00 0.00 0.00 75 1001.3
20260830060605 64 180 6.0 6.0 0.00 0.00 0.00 74 1001.3
20260830060305 64 225 6.0 6.0 0.00 0.00 0.00 74 1001.3
20260830060005 64 180 3.0 3.0 0.00 0.00 0.00 74 1001.3
20260830055706 64 202 6.0 6.0 0.00 0.00 0.00 75 1001.3
20260830055405 64 202 8.0 8.0 0.00 0.00 0.00 75 1001.3
20260830055106 65 225 4.0 4.0 0.00 0.00 0.00 75 1001.3
20260830054806 65 247 2.0 2.0 0.00 0.00 0.00 75 1001.3
20260830054205 64 180 6.0 6.0 0.00 0.00 0.00 75 1001.3
20260830053905 64 270 2.0 2.0 0.00 0.00 0.00 75 1001.3
20260830053605 64 225 5.0 5.0 0.00 0.00 0.00 75 1001.3
20260830053306 64 180 1.0 2.0 0.00 0.00 0.00 75 1001.3
20260830053006 64 135 2.0 2.0 0.00 0.00 0.00 75 1001.3
20260830052406 63 202 9.0 9.0 0.00 0.00 0.00 75 1001.3
20260830052106 63 180 4.0 4.0 0.00 0.00 0.00 75 1001.3
20260830051806 63 202 4.0 4.0 0.00 0.00 0.00 74 1001.3
20260830051508 63 225 3.0 3.0 0.00 0.00 0.00 74 1001.3
20260830051205 63 337 3.0 3.0 0.00 0.00 0.00 74 1001.3
20260830050906 63 180 3.0 3.0 0.00 0.00 0.00 74 1001.3
20260830050605 63 247 1.0 1.0 0.00 0.00 0.00 74 1001.3
20260830050305 63 247 4.0 4.0 0.00 0.00 0.00 74 1001.3
20260830050005 63 225 2.0 2.0 0.00 0.00 0.00 74 1001.3
20260830045708 63 225 3.0 3.0 0.00 0.00 0.00 74 1001.3
20260830045405 63 180 2.0 2.0 0.00 0.00 0.00 74 1001.3
20260830045106 63 202 5.0 5.0 0.00 0.00 0.00 74 1001.3
20260830044806 63 180 4.0 4.0 0.00 0.00 0.00 74 1001.3
20260830044505 63 337 3.0 3.0 0.00 0.00 0.00 74 1001.3
20260830044207 63 337 5.0 5.0 0.00 0.00 0.00 74 1001.3
20260830043606 64 337 6.0 6.0 0.00 0.00 0.00 74 1001.0
20260830043306 63 270 4.0 4.0 0.00 0.00 0.00 74 1001.0
20260830043005 63 202 2.0 2.0 0.00 0.00 0.00 74 1001.0
20260830042706 63 180 5.0 5.0 0.00 0.00 0.00 75 1001.3
20260830042406 63 225 5.0 5.0 0.00 0.00 0.00 74 1001.3